Disclaimer

Please do not use the information listed here in-flight or in-navigation, as they are not provided to us by the airports but are provided by volunteers, so they might be outdated.

Search


Regions


Airport information page

Radio informations:
MONTREAL CNTR - 132.9 MHz
AWOS - 124.6 MHz
MF - 122.2 MHz

Airport informations:
Latitude: 54° 48' 19.00" N
Longitude: 066° 48' 19.00" W
Elevation: 1709 feet - 521 meters
Operating hours: N/A
Operating agency: Civil government, landing fees and diplomatic clearance may be required
Timezone: Second Sunday in March at 0200 to first Sunday in November at 0200 local time (Exception Arizona and that portion of Indiana in the Eastern Time Zone)
Fuel: JP-4, Wide cut turbine fuel MIL Spec T-5624

100/130 MIL Spec, low lead, aviation gasoline (BLUE)

Runway information:
18/36 - 5000 x 150 feet< - >1524 x 46 meters

Recent METARs:
CYKL 200547Z AUTO VRB06KT 5SM HZ BKN011 M36/M41 A3003 RMK SLP261
CYKL 200631Z AUTO 31010G19KT 260V050 2 1/2SM HZ OVC011 M36/M41 A3004 RMK VIS VRB 1 1/2-3 SLP262
CYKL 200646Z AUTO 30010G17KT 270V340 3SM HZ OVC011 M36/M41 A3004 RMK SLP263

Airport on the map: